Tracking 26544 objects as of 9-Dec-2022
HD Live streaming from Space Station
objects crossing your sky now

STARLINK-4494

Track STARLINK-4494 now!
10-day predictions
STARLINK-4494 is classified as:


NORAD ID: 53558
Int'l Code: 2022-101AH
Perigee: 545.8 km
Apogee: 548.0 km
Inclination: 53.2 °
Period: 95.4 minutes
Semi major axis: 6917 km
RCS: Unknown
Launch date: August 19, 2022
Source: United States (US)
Launch site: AIR FORCE EASTERN TEST RANGE (AFETR)
aabbcc
Your satellite tracking list
Your tracking list is empty




NASA's NSSDC Master Catalog

Two Line Element Set (TLE):
1 53558U 22101AH  22342.30526904 -.00000301  00000-0 -84252-6 0  9997
2 53558  53.2169 349.2556 0001580  55.5666 304.5475 15.08843208 17785
Source of the keplerian elements: AFSPC